SCP
0 0 0 0 0 0 0 0 0 0 0 0 0 0 0 0 0 0 0 0 0 0 0 0 0 0 0 0 0 0 0 0 0 0 0 0 0 0 0 0 0 0 0
0 0 0 0 0 0 0 0 0 0 0 0 0 0 0 0 0 0 0 0 0 0 0 0 0 0 0 0 0 0 0 0 0 0 0 0 0 0 0 0 0 0 0
0 0 0 0 0 0 0 0 0 0 0 0 0 0 0 0 0 0 0 0 0 0 0 0 0 0 0 0 0 0 0 0 0 0 0 0 0 0 0 0 0 0 0
0 0 0 0 0 0 0 0 0 0 0 0 0 0 0 0 0 0 0 0 0 0 0 0 0 0 0 0 0 0 0 0 0 0 0 0 0 0 0 0 0 0 0
0 0 0 0 0 0 0 0 0 0 0 0 0 0 0 0 0 0 0 0 0 0 0 0 0 0 0 0 0 0 0 0 0 0 0 0 0 0 0 0 0 0 0
0 0 0 0 0 0 0 0 0 0 0 0 0 0 0 0 0 0 0 0 0 0 0 0 0 0 0 0 0 0 0 0 0 0 0 0 0 0 0 0 0 0 0
0 0 0 0 0 0 0 0 0 0 0 0 0 0 0 0 0 0 0 0 0 0 0 0 0 0 0 0 0 0 0 0 0 0 0 0 0 0 0 0 0 0 0
0 0 0 0 0 0 0 0 0 0 0 0 0 0 0 0 0 0 0 0 0 0 0 0 0 0 0 0 0 0 0 0 0 0 0 0 0 0 0 0 0 0 0
0 0 0 0 0 0 0 0 0 0 0 0 0 0 0 0 0 0 0 0 0 0 0 0 0 0 0 0 0 0 0 0 0 0 0 0 0 0 0 0 0 0 0
0 0 0 0 0 0 0 0 0 0 0 0 0 0 0 0 0 0 0 0 0 0 0 0 0 0 0 0 0 0 0 0 0 0 0 0 0 0 0 0 0 0 0
0 0 0 0 0 0 0 0 0 0 0 0 0 0 0 0 0 0 0 0 0 0 0 0 0 0 0 0 0 0 0 0 0 0 0 0 0 0 0 0 0 0 0
0 0 0 0 0 0 0 0 0 0 0 0 0 0 0 0 0 0 0 0 0 0 0 0 0 0 0 0 0 0 0 0 0 0 0 0 0 0 0 0 0 0 0
0 0 0 0 0 0 0 0 0 0 0 0 0 0 0 0 0 0 0 0 0 0 0 0 0 0 0 0 0 0 0 0 0 0 0 0 0 0 0 0 0 0 0
0 0 0 0 0 0 0 0 0 0 0 0 0 0 0 0 0 0 0 0 0 0 0 0 0 0 0 0 0 0 0 0 0 0 0 0 0 0 0 0 0 0 0
0 0 0 0 0 0 0 0 0 0 0 0 0 0 0 0 0 0 0 0 0 0 0 0 0 0 0 0 0 0 0 0 0 0 0 0 0 0 0 0 0 0 0
0 0 0 0 0 0 0 0 0 0 0 0 0 0 0 0 0 0 0 0 0 0 0 0 0 0 0 0 0 0 0 0 0 0 0 0 0 0 0 0 0 0 0
0 0 0 0 0 0 0 0 0 0 0 0 0 0 0 0 0 0 0 0 0 0 0 0 0 0 0 0 0 0 0 0 0 0 0 0 0 0 0 0 0 0 0
0 0 0 0 0 0 0 0 0 0 0 0 0 0 0 0 0 0 0 0 0 0 0 0 0 0 0 0 0 0 0 0 0 0 0 0 0 0 0 0 0 0 0
0 0 0 0 0 0 0 0 0 0 0 0 0 0 0 0 0 0 0 0 0 0 0 0 0 0 0 0 0 0 0 0 0 0 0 0 0 0 0 0 0 0 0
0 0 0 0 0 0 0 0 0 0 0 0 0 0 0 0 0 0 0 0 0 0 0 0 0 0 0 0 0 0 0 0 0 0 0 0 0 0 0 0 0 0 0
0 0 0 0 0 0 0 0 0 0 0 0 0 0 0 0 0 0 0 0 0 0 0 0 0 0 0 0 0 0 0 -0 0 0 0 0 0 0 0 0 0 0 0
0 0 0 0 0 0 0 0 0 0 0 0 0 0 0 0 0 0 0 0 0 0 0 0 0 0 0 0 0 0 -0 -0 -0 0 0 0 0 0 0 0 0 0 0
0 0 0 0 0 0 0 0 0 0 0 0 0 0 0 0 0 0 0 0 0 0 0 0 0 0 0 0 0 0 -0 -0 -0 0 0 0 0 0 0 0 0 0 0
0 0 0 0 0 0 0 0 0 0 0 0 0 0 0 0 0 0 0 0 0 0 0 0 0 0 0 0 0 0 0 0 0 0 0 0 0 0 0 0 0 0 0
0 0 0 0 0 0 0 0 0 0 0 0 0 0 0 0 0 0 0 0 0 0 0 0 0 0 0 0 0 0 0 0 0 0 0 0 0 0 0 0 0 0 0
0 0 0 0 0 0 0 0 0 0 0 0 0 0 0 0 0 0 0 0 0 0 0 0 0 0 0 0 0 0 0 0 0 0 0 0 0 0 0 0 0 0 0
Wind_Speed
1 2 2 2 2 2 2 2 3 4 4 5 6 6 6 6 5 5 4 11 13 14 14 13 14 14 14 14 14 15 14 12 12 12 12 12 12 12 11 10 10 9 8
2 2 2 2 2 2 2 2 3 3 3 4 5 5 5 5 4 4 4 7 12 13 15 15 15 15 15 15 15 16 16 15 13 13 13 14 14 13 12 11 11 10 9
2 2 2 2 1 2 3 3 3 3 3 4 5 5 5 4 4 4 4 4 5 11 13 14 15 15 15 16 16 16 16 15 15 14 15 15 15 15 14 13 13 12 11
4 3 2 1 2 2 3 2 2 2 3 3 3 3 4 3 4 4 4 4 3 4 8 12 13 14 15 16 16 16 16 15 15 15 15 15 15 16 15 14 13 12 11
4 4 2 2 3 3 2 3 3 3 3 3 2 3 3 3 3 5 5 5 4 4 3 7 10 12 14 16 16 16 16 15 15 15 15 15 15 16 16 15 14 14 12
4 3 1 2 3 3 3 3 3 3 2 2 3 4 3 2 3 4 4 4 4 4 4 4 3 6 12 15 16 16 15 15 15 15 16 15 16 16 16 16 16 16 14
3 3 2 3 3 2 2 3 2 2 2 2 2 2 2 2 3 3 3 3 4 4 4 4 3 4 5 11 14 16 15 15 15 16 16 17 17 17 17 17 17 17 17
3 2 2 2 2 2 3 2 2 1 0 1 1 1 1 2 2 3 2 3 3 3 4 5 5 5 5 4 9 15 14 15 16 16 16 17 17 17 17 17 17 17 17
3 3 3 2 2 2 2 1 1 2 1 1 1 1 1 1 0 1 2 3 3 3 3 3 6 6 6 5 5 10 15 14 15 16 16 17 17 17 17 17 17 17 17
3 3 3 2 2 2 2 1 2 1 2 1 1 1 1 2 2 1 1 2 3 4 4 4 5 5 6 4 7 11 14 14 15 16 16 16 16 17 17 17 17 17 17
2 2 2 2 2 2 2 2 2 2 1 1 0 1 1 1 1 3 1 1 2 2 3 4 4 4 5 4 4 9 12 13 14 15 16 16 16 16 16 16 17 17 17
1 2 1 1 2 2 2 2 2 2 1 1 1 1 1 1 1 2 2 1 2 1 3 3 3 3 3 4 6 10 10 11 12 13 14 15 15 15 16 16 16 16 16
2 1 2 1 2 2 3 3 2 2 1 2 2 2 2 2 1 2 2 1 1 1 2 2 2 3 3 3 4 7 8 9 10 11 12 13 14 14 15 15 15 15 16
2 2 2 2 2 2 3 3 2 2 2 2 3 3 2 2 2 2 2 2 2 2 2 2 2 2 2 3 3 4 4 8 8 9 10 11 12 13 13 14 14 15 15
3 3 3 3 2 2 2 2 2 2 3 2 2 3 2 2 2 2 2 2 2 2 1 1 1 1 2 2 3 2 3 6 7 7 8 9 10 11 11 12 12 13 13
3 3 3 3 3 3 2 3 2 1 2 2 2 3 2 2 2 2 2 2 2 2 2 1 1 1 1 3 3 2 3 6 5 5 5 6 7 8 9 10 10 11 12
4 4 3 3 3 3 3 3 2 1 1 1 2 3 3 2 2 2 2 2 2 3 3 1 1 1 2 2 1 1 2 2 2 4 4 4 5 6 7 8 8 9 10
3 4 3 3 3 3 3 3 2 2 2 3 3 4 3 3 3 2 2 2 2 2 3 2 1 1 1 1 1 0 1 2 2 3 3 3 3 3 4 5 6 7 8
3 3 3 3 3 3 3 3 2 2 3 3 3 3 3 4 3 2 3 3 2 2 2 2 1 1 1 1 1 1 2 1 1 3 3 3 2 2 2 3 4 5 6
3 2 3 3 3 3 2 2 2 2 3 3 3 4 4 4 3 3 3 3 3 2 2 2 1 1 1 1 2 2 2 2 1 1 1 1 2 3 2 2 2 3 4
3 2 3 3 3 3 3 3 2 2 3 3 4 5 6 7 7 5 3 3 3 2 2 2 1 1 1 1 1 1 1 2 2 1 1 1 0 1 1 1 1 0 2
3 3 3 3 4 4 6 7 4 3 2 3 3 4 5 5 6 6 6 6 5 3 2 2 1 1 1 1 1 1 1 2 2 2 1 2 0 0 1 1 1 1 0
3 3 3 4 5 4 5 5 5 3 3 3 3 3 4 4 4 3 3 4 4 4 3 2 1 1 1 1 1 1 1 1 2 2 1 2 2 1 1 1 3 3 1
4 3 3 4 4 4 4 3 3 2 2 3 3 3 3 3 3 3 3 3 3 2 2 2 2 1 2 1 1 0 1 2 2 2 2 1 2 2 2 0 2 2 2
4 4 4 4 4 3 3 3 2 1 2 2 4 5 4 5 5 6 4 3 3 2 2 3 3 2 3 4 3 3 3 3 3 2 2 1 2 2 2 1 1 1 2
5 4 4 4 4 4 3 3 3 1 2 2 3 4 6 6 6 6 4 3 3 2 2 2 2 2 1 2 3 2 1 1 2 2 3 2 2 3 3 3 2 2 2
Wind_Direction
78 92 95 83 67 79 76 52 63 62 53 55 62 59 61 66 75 91 75 67 64 56 54 53 49 47 44 40 37 32 32 39 39 32 30 29 25 23 26 26 30 35 38
86 72 80 74 64 63 65 62 72 74 67 59 62 63 56 59 61 86 98 78 69 61 54 50 48 46 45 43 40 37 37 39 38 36 35 32 28 28 32 37 39 40 43
94 75 76 79 69 67 65 52 56 69 78 74 69 66 59 43 53 71 86 91 81 66 60 54 49 47 46 44 41 39 38 39 40 40 39 36 33 35 38 45 45 43 45
87 79 65 79 88 76 79 76 53 66 71 64 66 61 69 41 51 61 73 77 72 75 65 61 53 49 45 43 41 39 40 41 43 41 40 39 37 40 43 47 46 45 50
81 79 46 38 71 70 63 73 64 67 77 71 86 77 65 51 39 52 62 70 65 71 78 71 61 53 46 43 40 38 41 43 44 43 43 41 41 42 43 44 42 45 54
67 78 61 48 63 71 62 68 75 69 72 69 71 75 67 66 52 46 48 58 58 61 64 69 65 58 53 44 39 37 42 46 46 45 45 45 44 45 46 47 46 48 54
66 76 62 56 58 76 82 92 85 93 84 87 77 68 47 57 68 67 53 50 56 52 59 61 56 53 57 48 38 37 42 45 46 46 47 47 47 47 47 50 51 52 54
48 77 80 83 80 78 68 77 90 76 74 117 107 103 101 36 16 67 71 61 53 41 45 60 64 59 58 51 38 37 40 43 47 48 49 49 48 49 49 50 52 53 54
46 47 58 72 97 104 110 116 108 102 52 30 69 96 105 122 115 32 69 76 66 50 44 45 59 59 62 54 42 34 41 41 46 48 49 50 50 50 50 50 52 52 52
66 44 50 55 80 92 114 124 100 97 88 38 2 28 109 129 133 99 23 62 77 67 54 54 55 62 62 61 53 45 44 41 45 47 48 49 50 51 50 50 51 51 51
86 67 45 43 75 91 96 83 82 77 85 86 41 22 23 21 54 118 120 75 61 64 71 64 63 62 62 63 60 54 50 45 46 47 47 48 49 51 51 51 51 50 50
95 88 67 57 73 81 85 86 89 82 67 53 41 46 58 59 29 76 115 119 107 83 77 69 70 68 67 68 67 63 56 51 49 47 46 46 47 48 49 49 50 49 48
116 114 95 73 69 72 75 78 77 94 96 80 68 56 54 52 45 62 90 94 103 113 88 71 79 79 78 81 73 66 66 60 54 50 49 48 48 47 47 47 46 45 45
142 139 115 97 81 77 78 74 68 60 77 77 79 80 67 46 47 60 85 92 65 52 69 78 69 77 75 85 80 71 77 72 64 57 54 51 49 48 46 45 42 41 41
142 134 128 121 114 93 82 80 66 48 59 51 70 84 85 72 60 51 61 89 106 93 58 63 57 70 94 97 98 89 92 87 77 65 60 55 52 49 47 44 42 39 37
134 128 130 134 133 123 100 87 73 56 78 84 84 76 72 75 73 55 48 51 72 108 100 90 121 147 106 103 116 113 112 108 99 83 70 62 55 52 48 45 41 38 35
131 130 134 129 125 122 108 97 99 71 85 98 101 102 87 72 77 67 52 64 59 82 100 52 77 102 101 91 89 96 137 131 121 117 97 79 65 56 48 44 40 38 35
138 141 136 130 122 115 117 121 119 94 71 67 74 90 95 84 70 64 58 68 71 87 107 108 61 42 83 130 129 172 122 128 125 134 132 120 98 75 55 45 42 39 35
142 138 136 128 116 114 116 125 128 116 102 89 82 84 92 90 78 70 67 62 54 71 84 102 83 33 40 47 57 11 27 27 138 141 158 162 160 141 98 61 48 39 34
125 121 118 106 94 88 83 80 96 101 100 94 94 84 75 77 76 70 75 65 62 62 66 76 76 54 40 18 56 29 2 339 332 71 107 161 182 184 171 113 70 46 32
122 109 100 98 90 80 54 48 46 89 101 96 90 88 82 80 76 71 76 67 66 67 71 73 63 44 35 36 19 344 360 330 334 36 9 303 194 202 205 195 183 58 43
118 108 105 103 91 76 68 57 43 48 70 95 101 108 112 96 92 85 88 90 88 91 89 78 51 56 31 41 20 15 17 11 328 324 13 306 307 261 222 181 172 169 156
110 103 100 99 95 85 78 61 53 38 40 54 69 86 89 91 97 101 106 110 92 95 100 102 78 45 58 27 45 12 355 330 271 278 26 304 327 337 308 132 148 160 183
128 125 120 115 110 102 94 80 62 48 56 57 60 69 89 88 66 71 88 98 96 86 110 111 98 61 58 47 67 254 276 318 309 341 67 320 323 320 312 333 172 184 221
140 140 134 129 122 118 123 115 91 92 99 85 77 60 71 85 66 59 66 74 72 59 90 113 113 90 69 48 39 39 17 16 342 329 18 30 328 324 309 302 334 270 269
147 139 135 141 137 132 139 136 130 115 115 99 92 79 70 85 74 60 65 67 60 33 38 53 56 24 32 34 33 50 43 24 348 328 352 14 349 2 334 327 356 341 325